Theta_e
314 314 313 313 313 314 313 312 308 303 304 309 309 313 314 314 316 315 315 319 320 320 319 319 319 319 319 320 320 320 321 321 320 319 319 318 319 320
315 312 311 310 310 311 310 312 310 307 304 310 310 311 312 313 315 313 312 319 317 317 319 318 317 317 317 317 318 318 319 319 319 319 318 317 317 318
311 311 310 310 309 309 312 312 312 312 307 308 309 310 308 309 309 310 312 311 311 315 317 316 315 315 314 315 315 315 316 317 317 318 318 318 318 317
309 309 309 312 311 310 312 311 310 309 307 304 307 305 306 308 309 309 310 311 311 313 314 313 313 312 312 312 312 312 312 313 313 315 315 316 317 317
305 306 308 310 308 310 310 308 307 308 306 304 302 305 305 307 308 308 309 309 309 312 311 310 310 311 311 312 311 311 309 308 308 309 311 313 314 315
303 305 308 310 306 305 305 304 304 302 301 302 303 304 306 307 306 302 301 303 303 305 307 308 310 312 312 312 312 312 311 309 307 306 306 306 307 309
302 306 309 309 307 305 303 301 298 298 300 301 301 303 302 300 299 301 299 300 301 303 303 307 306 307 308 310 312 313 310 308 306 306 305 304 303 304
302 304 306 303 301 300 301 301 302 300 301 301 299 297 296 299 300 299 298 297 295 304 302 302 306 306 308 308 309 308 308 307 306 306 305 304 302 302
302 303 305 301 296 296 297 299 302 305 303 298 292 294 296 297 299 297 297 296 296 300 300 298 305 305 308 310 308 307 306 306 305 304 304 304 304 301
297 298 297 295 293 294 294 296 298 299 299 299 298 295 295 296 297 296 296 296 296 296 296 293 303 305 308 308 308 307 306 305 305 304 304 303 301 300
296 297 296 295 294 293 293 293 294 296 299 298 298 297 295 295 296 293 291 289 288 289 292 294 299 303 305 306 308 309 306 305 305 305 305 304 302 300
293 296 298 296 293 292 292 291 291 293 292 292 293 294 294 293 295 292 290 287 286 286 296 290 294 298 299 305 304 307 306 306 305 304 305 304 301 305
290 292 294 294 292 291 292 290 290 293 292 291 292 292 291 290 289 290 290 288 286 286 291 292 292 292 295 301 306 306 304 306 309 310 307 305 300 301
289 291 292 292 291 291 292 292 292 293 291 290 291 288 288 287 288 288 289 289 289 288 290 291 290 292 294 295 300 305 306 307 309 309 311 309 303 300
288 292 293 292 292 292 293 293 292 291 290 288 287 287 288 288 288 288 289 289 290 291 294 295 295 296 298 299 303 304 303 306 310 309 309 311 312 314
290 289 293 293 293 292 291 292 291 291 289 288 288 288 289 288 287 288 286 287 287 290 293 296 296 297 297 300 305 304 306 305 308 307 308 312 315 318
289 288 288 287 288 289 290 290 290 289 287 287 286 287 287 287 287 288 288 288 287 287 289 293 296 298 299 299 301 304 304 302 305 307 310 310 313 315
288 287 287 288 288 288 287 287 288 288 286 285 284 285 286 286 286 287 289 288 287 288 289 291 293 296 301 297 298 295 297 301 305 306 309 308 307 302
285 285 285 286 287 287 286 286 286 286 285 284 283 284 286 286 286 287 288 287 287 288 290 294 295 298 298 301 295 295 292 296 299 304 301 301 300 295
285 285 286 287 287 286 285 285 285 284 282 282 282 284 285 284 285 287 287 286 287 288 289 293 295 296 301 302 298 295 292 293 294 300 300 298 296 296
287 286 286 287 287 286 284 284 283 282 281 280 280 283 284 284 285 288 287 286 286 287 287 289 292 292 304 304 297 294 295 294 294 293 295 301 301 301
286 285 286 286 286 283 282 282 281 280 279 279 279 281 282 284 285 287 286 287 287 287 288 290 294 301 300 297 292 292 292 293 294 294 295 295 299 301
285 284 284 285 284 282 281 280 279 278 278 278 279 280 280 283 286 287 286 288 287 287 288 288 290 296 297 295 292 292 291 290 290 289 291 294 295 295
Wind_Speed
3 4 2 3 3 4 2 2 1 6 9 7 7 7 7 9 11 12 9 15 20 19 19 20 18 19 19 19 19 20 20 20 21 20 20 21 22 22
3 5 3 3 4 4 3 2 2 4 7 7 7 11 11 10 12 12 12 17 16 20 20 18 18 18 19 21 19 19 20 19 19 19 20 22 21 22
6 5 5 5 3 4 3 2 3 3 6 10 8 10 14 14 13 9 10 10 11 17 21 20 19 17 20 16 16 16 18 20 21 20 20 21 21 22
7 9 7 6 6 5 3 4 3 4 5 11 11 10 12 13 13 14 11 10 12 17 20 23 18 20 19 20 20 20 17 18 20 22 21 22 22 22
7 7 7 5 5 5 4 4 5 5 6 6 11 8 9 9 12 12 12 12 10 21 21 21 21 20 21 22 21 16 16 17 18 21 23 23 22 22
7 6 5 4 5 6 6 6 6 7 7 7 8 9 9 10 9 12 13 10 12 12 17 16 19 19 20 17 20 22 16 14 16 18 20 20 19 19
7 7 4 7 11 9 5 7 7 6 7 7 8 8 9 11 11 9 11 13 11 11 9 7 12 11 10 13 17 18 16 13 10 11 14 15 16 16
5 6 5 9 9 14 16 17 12 8 9 6 6 9 10 11 10 10 11 11 10 3 9 11 10 10 10 9 14 16 17 12 11 10 10 12 15 16
8 7 6 7 11 9 12 15 13 5 5 4 4 7 12 12 14 14 13 12 12 12 11 16 10 10 9 8 14 16 14 11 10 11 13 14 15 15
7 5 5 6 7 8 8 8 8 8 6 7 4 6 7 11 10 13 15 13 12 12 10 11 10 10 10 8 15 15 10 11 13 12 14 16 14 14
8 4 3 5 10 11 8 7 8 7 7 10 13 11 10 12 11 11 10 11 12 14 9 7 7 7 9 10 7 10 9 11 13 14 16 16 13 12
7 6 7 8 11 10 8 9 9 9 9 10 9 6 7 13 16 10 9 11 10 9 5 10 9 6 7 3 5 7 5 12 13 14 16 14 12 4
4 6 6 10 14 17 12 7 5 10 8 7 5 6 11 12 10 10 10 9 10 10 12 7 7 10 5 8 5 7 6 8 8 8 12 12 8 5
6 6 7 13 14 15 10 11 8 8 5 8 6 9 12 12 11 11 12 10 10 15 16 12 8 9 10 12 11 5 8 9 7 6 6 9 9 7
4 9 14 11 10 8 10 13 9 7 8 9 7 10 10 11 14 12 12 13 12 14 11 12 9 11 10 12 8 7 7 6 7 4 7 8 5 2
10 7 10 10 9 8 6 7 7 10 10 10 8 10 10 11 11 12 13 13 12 7 10 9 11 10 10 9 8 9 7 5 9 8 8 6 4 3
5 4 5 4 6 8 8 9 8 10 12 11 9 12 12 12 12 13 10 11 10 12 14 12 10 10 8 7 5 5 6 6 8 7 4 2 3 5
4 4 5 7 8 9 10 10 9 13 11 11 11 11 12 13 14 13 11 11 12 12 13 12 11 9 1 2 8 5 4 4 6 5 3 2 1 7
4 5 5 5 6 8 10 10 10 10 12 10 10 12 12 12 15 13 14 13 13 12 11 11 10 7 9 7 3 16 5 4 6 3 4 4 3 6
4 4 5 7 7 8 9 9 9 10 11 11 11 12 13 13 13 12 14 15 15 14 14 11 10 11 11 4 2 1 11 8 5 4 1 1 2 7
6 5 5 7 7 8 9 9 10 11 11 11 10 11 13 13 13 12 14 19 18 12 14 14 14 22 6 2 2 2 3 12 12 5 3 2 2 3
5 5 5 6 7 8 9 9 10 10 11 10 11 11 11 12 13 15 15 14 14 13 12 12 14 10 5 5 5 6 4 5 8 20 25 6 2 2
5 5 5 6 6 7 8 9 10 10 10 10 11 11 12 13 12 13 13 13 14 14 15 14 13 11 3 4 3 4 8 9 7 13 16 24 25 30
Wind_Direction
347 357 -0 -0 0 321 324 27 322 320 312 315 322 325 332 331 324 317 313 311 303 300 299 296 291 291 288 284 275 270 269 266 265 266 272 277 277 274
23 27 17 347 341 323 314 318 291 297 298 316 318 318 324 324 319 326 312 303 308 298 293 293 289 288 294 289 274 267 268 266 259 258 261 267 272 272
14 357 354 348 321 301 316 333 352 345 315 307 311 319 324 318 318 309 301 304 311 304 305 303 300 295 295 293 286 279 277 269 265 260 253 253 256 262
10 357 337 323 325 313 10 3 341 325 321 311 316 315 300 308 312 313 317 311 312 305 313 305 313 304 299 300 286 283 278 265 261 262 260 253 250 249
345 340 324 342 7 354 358 10 345 344 321 301 299 301 305 310 320 319 321 322 317 315 311 311 302 297 294 292 293 293 281 267 262 260 261 255 247 243
324 314 308 22 38 19 12 11 340 320 306 291 292 304 312 330 328 328 320 319 315 309 307 300 290 292 290 297 296 297 291 279 267 266 267 256 248 243
321 315 25 73 50 31 9 340 323 304 296 300 305 310 326 330 322 321 309 313 314 295 293 310 311 303 296 295 290 290 283 280 278 281 274 259 250 240
349 354 3 51 28 12 356 327 311 297 298 320 323 322 318 318 315 318 313 316 318 288 317 300 289 290 288 281 281 281 278 270 272 299 294 276 256 247
7 358 11 41 19 0 334 325 322 4 51 325 308 319 324 328 323 320 315 307 296 303 315 299 289 282 287 295 283 282 268 282 285 284 278 270 269 251
7 8 34 20 6 348 332 332 322 325 351 329 297 287 320 322 329 321 311 308 303 298 310 285 291 285 295 297 292 288 263 293 287 289 291 283 274 261
344 23 16 353 348 342 326 318 309 300 313 308 303 294 303 313 322 322 322 322 313 310 307 251 271 325 302 293 287 302 283 288 294 301 304 291 282 271
338 338 318 343 328 325 335 317 317 326 321 319 315 304 313 333 337 331 323 315 313 306 21 349 313 319 321 265 303 308 313 299 299 300 301 291 287 267
326 321 314 316 320 320 326 299 281 305 317 322 308 330 336 337 336 325 317 303 295 273 288 304 307 312 270 291 285 307 292 301 298 298 300 295 283 241
311 308 305 306 310 312 324 317 327 349 348 341 348 341 341 336 330 324 315 301 279 272 283 268 268 282 284 285 284 290 303 295 283 292 311 300 278 236
316 305 308 319 331 333 356 15 352 1 3 348 347 344 337 327 324 323 318 308 295 285 276 271 263 271 267 279 274 283 300 303 295 300 309 304 291 236
349 338 0 7 4 2 358 12 2 11 4 342 339 332 332 337 334 334 325 326 322 316 303 280 278 278 282 279 280 277 279 288 307 300 297 279 263 236
355 1 4 351 5 10 10 12 6 7 1 350 343 337 337 335 337 334 327 328 326 319 321 319 306 284 265 288 289 284 307 291 284 290 282 340 11 24
2 5 358 10 13 15 11 5 7 4 357 349 346 340 338 337 333 332 335 337 328 324 318 313 316 328 221 99 28 322 303 297 306 340 345 42 14 11
14 4 4 5 3 21 14 5 4 359 352 350 347 341 339 334 334 334 341 337 332 326 318 315 310 306 298 294 137 45 330 318 315 1 3 16 37 22
4 2 10 14 9 28 13 2 0 354 353 350 346 341 342 335 333 337 341 336 334 331 329 330 330 331 318 344 78 86 27 11 343 343 1 59 53 162
7 14 15 16 21 27 12 3 2 355 349 344 340 339 339 334 334 337 335 335 335 337 334 331 321 309 292 293 42 27 37 21 20 359 323 335 53 60
8 7 9 13 42 27 10 1 357 353 348 344 339 335 334 331 332 340 336 338 340 335 329 318 324 333 0 20 23 23 13 1 9 32 38 26 1 119
4 9 11 12 54 30 13 3 356 351 347 340 333 334 330 331 329 341 333 341 337 337 341 334 334 332 29 32 32 45 53 40 32 50 47 41 65 78